User: anonymous   Login
Location: Bernadets
(43.3537°N, 0.3167°E)
Time: 13:29:29
(UTC+00:00)
Language:

In-Cosmos 22 Rocket - Orbit

View from above orbital plane
View from above orbital plane
View from above satellite
View from above satellite

Ground track
Ground track

The orbit data is extracted from the following two-line orbital elements,

1 12646U 81075B   22020.17493444  .00000050  00000-0  18606-4 0  9992
2 12646  81.2247  59.2123 0066734 237.5642 181.2786 14.15929261 89271
Epoch (UTC): 20 January 2022 04:11:54
Eccentricity: 0.0066734
inclination: 81.2247°
perigee height: 791 km
apogee height: 887 km
right ascension of ascending node: 59.2123°
argument of perigee: 237.5642°
revolutions per day: 14.15929261
mean anomaly at epoch: 181.2786°
orbit number at epoch: 8927

The dashed part of the orbit path shows where the satellite is in the earth's shadow,  

DLR